Location: Grasslands National Park East Block
(49.0708°N, 106.5295°W)
Time: 14:30:52
(UTC-06:00)

deb Explorer IX - All Passes

Search period start: 14 October 2019 00:00
Search period end: 24 October 2019 00:00
Orbit: 544 x 1107 km, 38.8° (Epoch: 14 October)

Date Brightness Start Highest point End Pass type
(mag) Time Alt. Az. Time Alt. Az. Time Alt. Az.
14 Oct - 16:06:40 10° SSW 16:11:11 21° SSE 16:16:05 10° ESE daylight
14 Oct - 17:51:31 10° SW 17:57:27 34° S 18:03:50 10° ESE daylight
14 Oct - 19:37:52 10° WSW 19:44:03 34° S 19:50:30 10° SE visible
14 Oct - 21:25:24 10° WSW 21:30:27 20° SSW 21:35:30 10° SSE visible
15 Oct - 15:44:49 10° SSW 15:49:12 20° SSE 15:53:58 10° ESE daylight
15 Oct - 17:29:38 10° SW 17:35:25 34° S 17:41:44 10° ESE daylight
15 Oct - 19:15:57 10° WSW 19:22:02 33° S 19:28:25 10° SE visible
15 Oct - 21:03:27 10° WSW 21:08:24 20° SSW 21:13:25 10° SSE visible
16 Oct - 15:22:59 10° SSW 15:27:13 20° SSE 15:31:51 10° ESE daylight
16 Oct - 17:07:47 10° SW 17:13:25 33° S 17:19:38 10° ESE daylight
16 Oct - 18:54:03 10° WSW 18:59:59 33° S 19:06:19 10° SE visible
16 Oct - 20:41:31 10° WSW 20:46:22 20° SSW 20:51:19 10° SSE visible
17 Oct - 15:01:11 10° SSW 15:05:16 19° SSE 15:09:44 10° ESE daylight
17 Oct - 16:45:56 10° SW 16:51:25 33° S 16:57:32 10° ESE daylight
17 Oct - 18:32:10 10° WSW 18:37:58 32° S 18:44:13 10° SE visible
17 Oct - 20:19:37 10° WSW 20:24:20 19° SSW 20:29:12 10° SSE visible
18 Oct - 14:39:24 10° SSW 14:43:19 19° SSE 14:47:36 10° ESE daylight
18 Oct - 16:24:07 10° SW 16:29:26 32° S 16:35:25 10° ESE daylight
18 Oct - 18:10:19 10° WSW 18:15:57 31° S 18:22:06 10° SE daylight
18 Oct - 19:57:45 10° WSW 20:02:19 19° SSW 20:07:03 10° SSE visible
19 Oct - 14:17:38 10° SSW 14:21:23 18° SSE 14:25:29 10° ESE daylight
19 Oct - 16:02:18 10° SW 16:07:28 32° S 16:13:17 10° ESE daylight
19 Oct - 17:48:29 10° WSW 17:53:57 31° S 17:59:59 10° SE daylight
19 Oct - 19:35:55 10° WSW 19:40:18 18° SSW 19:44:53 10° SSE visible
20 Oct - 13:55:53 10° SSW 13:59:27 18° SSE 14:03:23 10° ESE daylight
20 Oct - 15:40:32 10° SW 15:45:31 31° S 15:51:11 10° ESE daylight
20 Oct - 17:26:39 10° WSW 17:31:58 30° S 17:37:51 10° SE daylight
20 Oct - 19:14:06 10° WSW 19:18:17 17° SSW 19:22:41 10° S visible
21 Oct - 13:34:09 10° SSW 13:37:32 17° SSE 13:41:16 10° ESE daylight
21 Oct - 15:18:46 10° SW 15:23:35 30° S 15:29:03 10° ESE daylight
21 Oct - 17:04:51 10° WSW 17:09:59 29° S 17:15:43 10° SE daylight
21 Oct - 18:52:19 10° WSW 18:56:17 17° SSW 19:00:29 10° S visible
22 Oct - 13:12:25 10° SSW 13:15:39 17° SSE 13:19:10 10° ESE daylight
22 Oct - 14:57:01 10° SW 15:01:39 29° S 15:06:57 10° ESE daylight
22 Oct - 16:43:05 10° WSW 16:48:01 28° S 16:53:33 10° SE daylight
22 Oct - 18:30:35 10° WSW 18:34:18 16° SSW 18:38:14 10° S visible
23 Oct - 12:50:42 10° SSW 12:53:45 16° SSE 12:57:05 10° ESE daylight
23 Oct - 14:35:16 10° SW 14:39:44 28° S 14:44:50 10° ESE daylight
23 Oct - 16:21:19 10° WSW 16:26:04 27° S 16:31:25 10° SE daylight
23 Oct - 18:08:52 10° WSW 18:12:19 15° SSW 18:15:59 10° S daylight
